| time (UTC) | temp C | wind direction | speed KPH | gust KPH | rain 1hr cm | rain 24hr cm | rain mn cm | humidity % | barometer mb |
| 20260507120612 | 15 | 91 | 6.4 | 6.4 | 0.00 | 0.00 | 0.00 | 81 | 1016.0 |
| 20260507113611 | 15 | 91 | 6.4 | 6.4 | 0.00 | 0.00 | 0.00 | 81 | 1016.0 |
| 20260507110610 | 15 | 91 | 6.4 | 6.4 | 0.00 | 0.00 | 0.00 | 81 | 1016.0 |
| 20260507103609 | 15 | 91 | 6.4 | 6.4 | 0.00 | 0.00 | 0.00 | 82 | 1015.0 |
| 20260507100608 | 15 | 91 | 6.4 | 6.4 | 0.00 | 0.00 | 0.00 | 81 | 1016.0 |
| 20260507093607 | 15 | 91 | 6.4 | 6.4 | 0.00 | 0.00 | 0.00 | 81 | 1015.0 |
| 20260507090606 | 15 | 91 | 6.4 | 6.4 | 0.00 | 0.00 | 0.00 | 81 | 1016.0 |
| 20260507083605 | 16 | 91 | 6.4 | 6.4 | 0.00 | 0.00 | 0.00 | 81 | 1015.0 |
| 20260507080604 | 16 | 91 | 6.4 | 6.4 | 0.00 | 0.00 | 0.00 | 81 | 1016.0 |
| 20260507073603 | 16 | 91 | 6.4 | 6.4 | 0.00 | 0.00 | 0.00 | 81 | 1015.0 |
| 20260507070602 | 16 | 91 | 6.4 | 6.4 | 0.00 | 0.00 | 0.00 | 81 | 1016.0 |
| 20260507063601 | 16 | 91 | 6.4 | 6.4 | 0.00 | 0.00 | 0.00 | 81 | 1015.0 |
| 20260507060600 | 16 | 91 | 6.4 | 6.4 | 0.00 | 0.00 | 0.00 | 80 | 1016.0 |
| 20260507053559 | 16 | 91 | 6.4 | 6.4 | 0.00 | 0.00 | 0.00 | 80 | 1016.0 |
| 20260507050558 | 16 | 91 | 6.4 | 6.4 | 0.00 | 0.00 | 0.00 | 80 | 1017.0 |
| 20260507043557 | 16 | 91 | 6.4 | 6.4 | 0.00 | 0.00 | 0.00 | 80 | 1016.0 |
| 20260507040556 | 16 | 91 | 6.4 | 6.4 | 0.00 | 0.00 | 0.00 | 80 | 1017.0 |
| 20260507033554 | 16 | 91 | 6.4 | 6.4 | 0.00 | 0.00 | 0.00 | 80 | 1016.0 |
| 20260507030553 | 16 | 91 | 6.4 | 6.4 | 0.00 | 0.00 | 0.00 | 80 | 1016.0 |
| 20260507023552 | 17 | 91 | 6.4 | 6.4 | 0.00 | 0.00 | 0.00 | 80 | 1015.0 |
| 20260507020551 | 17 | 91 | 6.4 | 6.4 | 0.00 | 0.00 | 0.00 | 80 | 1015.0 |
| 20260507013550 | 17 | 91 | 6.4 | 6.4 | 0.00 | 0.00 | 0.00 | 80 | 1015.0 |
| 20260507010549 | 17 | 91 | 6.4 | 6.4 | 0.00 | 0.00 | 0.00 | 80 | 1014.0 |
| 20260507003548 | 18 | 91 | 6.4 | 6.4 | 0.00 | 0.00 | 0.00 | 80 | 1014.0 |
| 20260507000547 | 18 | 91 | 6.4 | 6.4 | 0.00 | 0.00 | 0.00 | 80 | 1013.0 |
| 20260506233546 | 22 | 210 | 12.9 | 0.0 | 0.00 | 0.00 | 0.00 | 80 | 1012.0 |
| 20260506230545 | 22 | 210 | 12.9 | 0.0 | 0.00 | 0.00 | 0.00 | 80 | 1011.0 |
| 20260506223544 | 22 | 210 | 12.9 | 0.0 | 0.00 | 0.00 | 0.00 | 80 | 1010.0 |
| 20260506220543 | 22 | 210 | 12.9 | 0.0 | 0.00 | 0.00 | 0.00 | 80 | 1010.0 |
| 20260506213542 | 23 | 210 | 12.9 | 0.0 | 0.00 | 0.00 | 0.00 | 80 | 1009.0 |
| 20260506210541 | 23 | 210 | 12.9 | 0.0 | 0.00 | 0.00 | 0.00 | 79 | 1010.0 |
| 20260506203540 | 23 | 210 | 12.9 | 0.0 | 0.00 | 0.00 | 0.00 | 78 | 1009.0 |
| 20260506200538 | 24 | 210 | 12.9 | 0.0 | 0.00 | 0.00 | 0.00 | 77 | 1010.0 |
| 20260506193538 | 24 | 210 | 12.9 | 0.0 | 0.00 | 0.00 | 0.00 | 78 | 1010.0 |
| 20260506190537 | 23 | 210 | 12.9 | 0.0 | 0.00 | 0.00 | 0.00 | 83 | 1011.0 |
| 20260506183536 | 23 | 210 | 12.9 | 0.0 | 0.00 | 0.00 | 0.00 | 82 | 1010.0 |
| 20260506180535 | 23 | 210 | 12.9 | 0.0 | 0.00 | 0.00 | 0.00 | 82 | 1012.0 |
| 20260506173534 | 23 | 210 | 12.9 | 0.0 | 0.00 | 0.00 | 0.00 | 83 | 1012.0 |
| 20260506170533 | 23 | 210 | 12.9 | 0.0 | 0.00 | 0.00 | 0.00 | 83 | 1013.0 |
| 20260506163531 | 23 | 200 | 6.4 | 0.0 | 0.00 | 0.00 | 0.00 | 83 | 1013.0 |
| 20260506160530 | 24 | 200 | 6.4 | 0.0 | 0.00 | 0.00 | 0.00 | 83 | 1014.0 |
| 20260506153529 | 21 | 0 | 3.2 | 0.0 | 0.00 | 0.00 | 0.00 | 92 | 1014.0 |
| 20260506150529 | 21 | 0 | 3.2 | 0.0 | 0.00 | 0.00 | 0.00 | 93 | 1016.0 |
| 20260506143527 | 21 | 0 | 3.2 | 0.0 | 0.00 | 0.00 | 0.00 | 94 | 1015.0 |
| 20260506140526 | 22 | 0 | 3.2 | 0.0 | 0.00 | 0.00 | 0.00 | 94 | 1016.0 |
| 20260506133525 | 16 | 160 | 6.4 | 0.0 | 0.00 | 0.00 | 0.00 | 91 | 1016.0 |
| 20260506130524 | 17 | 160 | 6.4 | 0.0 | 0.00 | 0.00 | 0.00 | 91 | 1016.0 |
| 20260506123523 | 17 | 160 | 6.4 | 0.0 | 0.00 | 0.00 | 0.00 | 91 | 1016.0 |